CYGFM05

Last updated on Tue Jul 01 2025 00:02:22 GMT+0000 (Coordinated Universal Time)

1 41884U 16078A 25180.86741259 .00009090 00000+0 21442-3 0 9998 2 41884 34.9615 44.3577 0008449 67.9462 292.2155 15.41055954474116
UTC large
Height (km)
Speed (km/s)
/
Latitude / Longitude
Inclination (degrees)
Orbital Period (minutes)
Azimuth
Elevation
Range (km)
Doppler Factor

Next 0 passes for location: London (51.5072 / 0.1276)

Sorry there are no passes over London.